Vienna, OH

6:25 PM EST on December 08, 2016 (GMT -0500)
Youngstown-Warren Regional

Weather History for KYNG - October, 2011

Change the Weather History Date:

Sunday, October 30, 2011

  Actual Average Record
Temperature  
Mean Temperature 33 °F 47 °F  
Max Temperature 43 °F 56 °F 75 °F (1950)
Min Temperature 23 °F 38 °F 21 °F (1988)
Degree Days  
Heating Degree Days 32 18  
Month to date heating degree days 407 421  
Since 1 July heating degree days 528 604  
Cooling Degree Days 0 0  
Month to date cooling degree days 0 3  
Year to date cooling degree days 731 541  
Moisture  
Dew Point 30 °F    
Average Humidity 88    
Maximum Humidity 100    
Minimum Humidity 76    
Precipitation  
Precipitation 0.00 in 0.09 in 0.80 in (2012)
Month to date precipitation 3.16 2.68  
Year to date precipitation 45.40 32.65  
Snow  
Snow 0.00 in 0.00 in - ()
Month to date snowfall T 0.7  
Since 1 July snowfall T 0.7  
Since 1 September snowfall T 0.7  
Snow Depth 0.00 in    
Sea Level Pressure  
Sea Level Pressure 30.24 in    
Wind  
Wind Speed 7 mph (SE)    
Max Wind Speed 13 mph    
Max Gust Speed 17 mph    
Visibility 5 miles    
Events Fog    
T = Trace of Precipitation, MM = Missing Value Source: NWS Daily Summary

Daily Weather History Graph

Daily Weather History Graph

Search for Another Location

Airport or City:

Trip Planner

Search our weather history database for the weather conditions in past years. The results will help you decide how hot, cold, wet, or windy it might be!

Date:

Astronomy

Oct. 30, 2011 Rise Set
Actual Time 7:51 AM EDT 6:20 PM EDT
Civil Twilight 7:22 AM EDT 6:49 PM EDT
Nautical Twilight 6:50 AM EDT 7:21 PM EDT
Astronomical Twilight 6:18 AM EDT 7:53 PM EDT
Moon 12:10 PM EDT (10/30) 9:46 PM EDT (10/30)
Length of Visible Light 11h 26m
Length of Day
10h 29m
Waxing Crescent, 20% of the Moon is Illuminated
Oct 30
Waxing Crescent
Nov 2
First Quarter
Nov 10
Full
Nov 18
Last Quarter
Nov 25
New

Hourly Weather History & Observations

Time (EDT) Temp. Windchill Dew Point Humidity Pressure Visibility Wind Dir Wind Speed Gust Speed Precip Events Conditions
12:51 AM 28.9 °F 23.9 °F 28.0 °F 96% 30.15 in 10.0 mi SE 4.6 mph - N/A   Clear
1:51 AM 28.9 °F - 27.0 °F 92% 30.17 in 10.0 mi Calm Calm - N/A Fog Shallow Fog
2:51 AM 26.1 °F - 25.0 °F 96% 30.18 in 4.0 mi Calm Calm - N/A Fog Shallow Fog
3:29 AM 26.6 °F 22.6 °F 26.6 °F 100% 30.14 in 0.5 mi ESE 3.5 mph - N/A Fog Light Freezing Fog
3:51 AM 26.1 °F 21.9 °F 25.0 °F 96% 30.18 in 0.2 mi SE 3.5 mph - N/A Fog Light Freezing Fog
4:31 AM 26.6 °F 22.6 °F 24.8 °F 93% 30.16 in 4.0 mi East 3.5 mph - N/A Fog Patches of Fog
4:51 AM 24.1 °F 17.0 °F 23.0 °F 96% 30.20 in 4.0 mi ESE 5.8 mph - N/A Fog Patches of Fog
5:33 AM 24.8 °F 20.5 °F 23.0 °F 93% 30.18 in 1.0 mi SE 3.5 mph - N/A Fog Patches of Fog
5:51 AM 25.0 °F 19.3 °F 23.0 °F 92% 30.22 in 1.0 mi East 4.6 mph - N/A   Scattered Clouds
6:51 AM 25.0 °F 16.3 °F 23.0 °F 92% 30.23 in 1.0 mi East 8.1 mph - N/A   Partly Cloudy
7:27 AM 24.8 °F 20.5 °F 24.8 °F 100% 30.21 in 0.2 mi SE 3.5 mph - N/A Fog Light Freezing Fog
7:51 AM 26.1 °F 20.5 °F 25.0 °F 96% 30.26 in 0.1 mi SE 4.6 mph - N/A Fog Light Freezing Fog
8:41 AM 28.4 °F 22.2 °F 26.6 °F 93% 30.23 in 0.2 mi ESE 5.8 mph - N/A Fog Light Freezing Fog
8:51 AM 28.0 °F 20.8 °F 27.0 °F 96% 30.28 in 0.2 mi ESE 6.9 mph - N/A Fog Light Freezing Fog
9:51 AM 30.0 °F 25.2 °F 28.9 °F 96% 30.30 in 0.2 mi SE 4.6 mph - N/A Fog Light Freezing Fog
10:51 AM 32.0 °F 25.6 °F 32.0 °F 100% 30.31 in 0.5 mi ESE 6.9 mph - N/A Fog Light Freezing Fog
11:05 AM 33.8 °F 29.6 °F 33.8 °F 100% 30.27 in 1.0 mi SE 4.6 mph - N/A   Overcast
11:51 AM 35.1 °F 30.1 °F 34.0 °F 96% 30.32 in 2.0 mi SE 5.8 mph - N/A   Overcast
12:08 PM 35.6 °F 29.2 °F 33.8 °F 93% 30.27 in 3.0 mi SSE 8.1 mph - N/A   Overcast
12:51 PM 37.9 °F 32.7 °F 35.1 °F 89% 30.30 in 9.0 mi SE 6.9 mph - N/A   Mostly Cloudy
1:13 PM 37.4 °F 30.8 °F 35.6 °F 93% 30.26 in 10.0 mi SE 9.2 mph - N/A   Mostly Cloudy
1:51 PM 39.9 °F 34.5 °F 35.1 °F 83% 30.29 in 10.0 mi South 8.1 mph - N/A   Mostly Cloudy
2:39 PM 39.2 °F 32.5 °F 35.6 °F 87% 30.24 in 10.0 mi SSE 10.4 mph - N/A   Mostly Cloudy
2:51 PM 41.0 °F 35.2 °F 35.1 °F 79% 30.27 in 10.0 mi SE 9.2 mph - N/A   Mostly Cloudy
3:13 PM 41.0 °F 34.7 °F 35.6 °F 81% 30.23 in 10.0 mi SE 10.4 mph - N/A   Mostly Cloudy
3:51 PM 42.1 °F 36.1 °F 36.0 °F 79% 30.26 in 10.0 mi SE 10.4 mph - N/A   Mostly Cloudy
4:51 PM 39.9 °F 33.4 °F 35.1 °F 83% 30.27 in 10.0 mi ESE 10.4 mph - N/A   Overcast
5:51 PM 39.0 °F 32.8 °F 35.1 °F 86% 30.26 in 9.0 mi ESE 9.2 mph - N/A   Mostly Cloudy
6:51 PM 37.9 °F 30.5 °F 34.0 °F 86% 30.26 in 9.0 mi ESE 11.5 mph - N/A   Mostly Cloudy
7:51 PM 37.0 °F 29.8 °F 33.1 °F 86% 30.26 in 6.0 mi ESE 10.4 mph - N/A   Scattered Clouds
8:51 PM 36.0 °F 28.0 °F 33.1 °F 89% 30.26 in 6.0 mi SE 11.5 mph - N/A   Clear
9:51 PM 35.1 °F 27.9 °F 32.0 °F 89% 30.26 in 7.0 mi SE 9.2 mph - N/A   Scattered Clouds
10:51 PM 34.0 °F 26.6 °F 32.0 °F 92% 30.27 in 6.0 mi SE 9.2 mph - N/A   Scattered Clouds
11:51 PM 34.0 °F 26.6 °F 32.0 °F 92% 30.25 in 6.0 mi SE 9.2 mph - N/A   Mostly Cloudy